�N����,����,�~����,�C��,���x,�C��,����,���ϕ���,�ő�u�ԕ���,�ő厞����,���˗�,�I�_���x,�n�����x,�ő啗���N��,DTYPE
"23/07/01","00:10",0.0,24.8,95.0,999.3,6.6,0.7,1.3,9.6,0.00,24.0,23.4,"00:09:52",1
"23/07/01","00:20",0.2,24.7,95.0,999.3,12.9,0.6,1.1,24.4,0.00,23.9,23.7,"00:10:32",1
"23/07/01","00:30",0.0,24.7,95.1,999.1,293.8,0.3,0.8,271.1,0.00,23.9,23.6,"00:24:08",1
"23/07/01","00:40",0.0,24.7,95.2,999.3,337.1,0.7,1.0,325.6,0.00,23.9,23.7,"00:34:00",1
"23/07/01","00:50",0.0,24.6,95.2,999.3,355.2,0.6,1.2,344.5,0.00,23.8,23.5,"00:44:56",1
"23/07/01","01:00",0.0,24.6,95.3,999.1,12.0,0.6,1.1,359.1,0.00,23.8,23.6,"00:58:16",1
"23/07/01","01:10",0.0,24.4,95.4,999.3,15.4,0.3,0.6,213.1,0.00,23.7,23.5,"01:07:36",1
"23/07/01","01:20",0.0,24.4,95.4,999.6,176.7,0.6,2.2,232.6,0.00,23.7,23.6,"01:15:36",1
"23/07/01","01:30",0.0,23.7,95.5,998.9,176.6,1.2,2.7,210.8,0.00,23.0,23.7,"01:22:00",1
"23/07/01","01:40",0.0,23.5,95.5,999.3,183.1,1.7,3.5,191.8,0.00,22.8,23.7,"01:33:36",1
"23/07/01","01:50",0.0,23.5,95.6,999.3,144.9,1.1,2.2,130.2,0.00,22.8,23.6,"01:44:16",1
"23/07/01","02:00",0.0,23.5,95.7,999.1,132.3,0.8,2.1,126.4,0.00,22.8,23.6,"01:51:28",1
"23/07/01","02:10",0.2,23.5,95.7,999.6,135.8,0.7,1.7,234.8,0.00,22.8,23.4,"02:09:28",1
"23/07/01","02:20",0.0,23.3,95.7,999.6,179.3,0.8,2.4,200.7,0.00,22.6,23.7,"02:18:40",1
"23/07/01","02:30",0.0,23.4,95.7,999.3,134.7,0.5,1.2,118.8,0.00,22.7,23.3,"02:28:48",1
"23/07/01","02:40",0.2,23.2,95.7,999.1,158.8,0.8,2.4,183.6,0.00,22.5,23.4,"02:32:24",1
"23/07/01","02:50",0.0,23.2,95.8,999.1,127.4,0.5,1.2,211.3,0.00,22.5,23.6,"02:44:08",1
"23/07/01","03:00",0.0,23.1,95.8,999.1,141.2,0.3,1.2,171.5,0.00,22.4,23.4,"02:55:52",1
"23/07/01","03:10",0.0,23.1,95.9,998.9,68.1,0.2,0.8,96.9,0.00,22.4,23.3,"03:00:32",1
"23/07/01","03:20",0.0,23.2,95.9,998.9,72.5,0.3,1.1,40.7,0.00,22.5,23.4,"03:17:28",1
"23/07/01","03:30",0.0,23.2,95.9,998.6,70.2,0.6,1.3,123.3,0.00,22.5,23.4,"03:22:48",1
"23/07/01","03:40",0.0,23.2,96.0,998.6,324.7,0.6,1.1,348.9,0.00,22.6,23.3,"03:32:40",1
"23/07/01","03:50",0.2,23.2,96.0,998.2,355.6,0.2,0.6,305.5,0.00,22.6,23.5,"03:49:44",1
"23/07/01","04:00",0.0,23.2,96.0,998.6,347.2,0.6,1.3,348.6,0.00,22.6,23.4,"03:56:48",1
"23/07/01","04:10",0.0,23.2,96.0,998.4,355.4,0.6,1.1,341.2,0.00,22.6,23.4,"04:05:20",1
"23/07/01","04:20",0.0,23.1,96.1,997.7,339.6,0.5,0.8,342.9,0.00,22.5,23.5,"04:12:08",1
"23/07/01","04:30",0.0,23.1,96.1,998.2,355.3,0.7,1.6,348.0,0.00,22.5,23.4,"04:27:36",1
"23/07/01","04:40",0.0,23.1,96.1,998.2,279.2,0.5,1.1,326.3,0.00,22.5,23.4,"04:31:04",1
"23/07/01","04:50",0.0,23.0,96.2,998.2,282.1,0.3,0.9,315.9,0.00,22.4,23.2,"04:41:04",1
"23/07/01","05:00",0.4,23.0,96.2,998.4,324.4,0.1,0.4,349.5,0.00,22.4,23.3,"04:56:56",1
"23/07/01","05:10",1.0,23.1,96.2,998.2,334.6,0.3,1.2,336.2,0.00,22.5,23.3,"05:04:00",1
"23/07/01","05:20",0.8,23.1,96.2,998.4,231.6,0.2,0.6,319.6,0.00,22.5,23.3,"05:18:00",1
"23/07/01","05:30",0.8,23.1,96.3,997.9,248.8,0.3,0.9,252.3,0.00,22.5,23.2,"05:29:44",1
"23/07/01","05:40",1.4,23.0,96.3,997.4,225.9,0.5,0.9,237.6,0.00,22.4,23.4,"05:33:52",1
"23/07/01","05:50",0.8,23.0,96.3,997.9,295.6,0.3,1.2,342.2,0.00,22.4,23.3,"05:48:48",1
"23/07/01","06:00",0.4,22.9,96.3,997.9,198.1,0.1,0.6,288.2,0.00,22.3,23.3,"05:50:08",1
"23/07/01","06:10",0.2,22.9,96.4,997.4,187.1,0.1,0.5,242.2,0.00,22.3,23.2,"06:07:36",1
"23/07/01","06:20",0.2,23.0,96.4,998.2,170.1,0.3,0.9,137.1,0.00,22.4,23.2,"06:16:40",1
"23/07/01","06:30",0.2,23.0,96.5,997.7,162.8,0.7,1.7,127.5,0.00,22.5,23.4,"06:28:16",1
"23/07/01","06:40",0.2,23.0,96.5,997.9,80.8,0.3,1.2,2.2,0.00,22.5,23.3,"06:38:56",1
"23/07/01","06:50",0.0,23.1,96.5,998.4,329.3,0.5,1.4,338.7,0.00,22.6,23.2,"06:42:08",1
"23/07/01","07:00",0.0,23.2,96.5,998.4,163.2,0.1,0.6,169.7,0.02,22.7,23.4,"06:52:00",1
"23/07/01","07:10",0.0,23.4,96.5,998.6,177.6,0.5,1.0,133.9,0.02,22.9,23.3,"07:03:04",1
"23/07/01","07:20",0.0,23.3,96.5,998.9,195.8,1.0,1.7,186.4,0.02,22.8,23.3,"07:17:12",1
"23/07/01","07:30",0.0,23.4,96.5,998.9,199.5,1.0,2.1,225.7,0.04,22.9,23.3,"07:24:48",1
"23/07/01","07:40",0.0,23.3,96.5,998.9,199.3,1.2,2.5,200.7,0.03,22.8,23.3,"07:34:16",1
"23/07/01","07:50",0.0,23.3,96.5,999.1,193.1,1.1,2.0,221.7,0.00,22.8,23.2,"07:44:48",1
"23/07/01","08:00",0.0,23.3,96.5,999.1,174.7,0.3,1.0,199.1,0.00,22.8,23.3,"07:53:12",1
"23/07/01","08:10",0.0,23.5,96.6,998.9,153.4,0.5,1.3,131.5,0.03,23.0,23.2,"08:05:04",1
"23/07/01","08:20",0.0,23.5,96.5,999.1,180.9,0.7,1.7,223.5,0.04,23.0,23.1,"08:16:40",1
"23/07/01","08:30",0.0,23.5,96.5,999.1,195.3,1.1,1.9,208.7,0.03,23.0,23.3,"08:23:20",1
"23/07/01","08:40",0.0,23.7,96.5,999.6,205.7,0.7,1.3,228.4,0.07,23.1,23.1,"08:31:12",1
"23/07/01","08:50",0.0,23.8,96.4,999.3,152.9,0.5,1.4,183.6,0.06,23.2,23.2,"08:49:20",1
"23/07/01","09:00",0.0,23.9,96.5,999.3,184.5,0.6,1.6,195.9,0.07,23.3,23.1,"08:51:36",1
"23/07/01","09:10",0.0,23.9,96.4,999.8,191.3,0.8,1.6,226.7,0.07,23.3,23.3,"09:08:24",1
"23/07/01","09:20",0.0,24.0,96.5,999.8,211.8,0.3,1.1,242.0,0.07,23.4,23.2,"09:10:08",1
"23/07/01","09:30",0.0,24.6,96.5,999.8,351.2,0.2,0.5,34.9,0.13,24.0,23.3,"09:24:08",1
"23/07/01","09:40",0.0,24.6,96.3,999.8,298.2,0.8,1.3,341.9,0.12,24.0,23.3,"09:37:36",1
"23/07/01","09:50",0.0,24.5,96.3,999.6,344.4,1.0,1.7,357.4,0.05,23.9,23.3,"09:44:16",1
"23/07/01","10:00",0.0,24.3,96.4,999.8,335.4,1.2,2.0,342.7,0.03,23.7,23.2,"09:59:28",1
"23/07/01","10:10",0.0,24.3,96.3,999.6,314.6,1.1,2.1,338.9,0.03,23.7,23.2,"10:00:40",1
"23/07/01","10:20",0.2,24.2,96.4,1000.0,307.2,0.6,1.4,341.7,0.05,23.6,23.2,"10:17:20",1
"23/07/01","10:30",0.0,24.3,96.4,1000.3,326.3,0.7,1.2,317.5,0.06,23.7,23.3,"10:23:44",1
"23/07/01","10:40",0.2,24.4,96.4,1000.0,343.8,0.2,1.0,341.7,0.08,23.8,23.1,"10:30:16",1
"23/07/01","10:50",0.0,24.5,96.3,999.8,14.1,0.5,1.2,359.0,0.09,23.9,23.2,"10:41:28",1
"23/07/01","11:00",0.0,24.5,96.3,1000.0,350.4,0.2,1.0,15.3,0.07,23.9,23.2,"10:53:28",1
"23/07/01","11:10",0.0,24.6,96.2,1000.0,188.6,0.6,2.4,205.4,0.10,24.0,23.1,"11:08:48",1
"23/07/01","11:20",0.0,24.8,96.2,999.8,223.5,0.8,1.8,214.5,0.17,24.2,23.1,"11:17:12",1
"23/07/01","11:30",0.0,25.0,96.2,999.8,270.5,0.6,1.2,221.5,0.17,24.4,23.2,"11:21:04",1
"23/07/01","11:40",0.0,25.1,96.0,1000.0,182.3,0.5,1.2,161.4,0.09,24.5,23.3,"11:31:52",1
"23/07/01","11:50",0.0,25.0,95.7,1000.0,209.4,0.3,0.9,257.8,0.07,24.3,23.3,"11:43:12",1
"23/07/01","12:00",0.0,25.0,95.9,1000.3,24.3,0.5,1.0,106.4,0.04,24.3,23.1,"11:57:52",1
"23/07/01","12:10",0.0,24.6,95.8,1000.0,189.9,0.3,1.0,172.8,0.03,23.9,23.3,"12:00:40",1
"23/07/01","12:20",0.0,24.6,95.9,1000.3,154.2,0.3,1.0,172.2,0.03,23.9,23.2,"12:15:44",1
"23/07/01","12:30",0.0,24.7,96.0,1000.3,333.1,0.5,1.0,303.4,0.04,24.1,23.3,"12:24:24",1
"23/07/01","12:40",0.2,24.7,95.9,1000.3,320.5,0.5,1.0,320.8,0.03,24.0,23.1,"12:36:08",1
"23/07/01","12:50",0.0,24.6,95.9,1000.3,331.6,0.2,0.9,355.6,0.03,23.9,23.3,"12:49:12",1
"23/07/01","13:00",0.2,24.7,96.0,1000.0,49.5,0.3,1.1,47.7,0.06,24.1,23.4,"12:58:40",1
"23/07/01","13:10",0.0,24.6,96.0,1000.0,37.1,0.3,1.2,84.7,0.07,24.0,23.2,"13:02:40",1
"23/07/01","13:20",0.2,24.6,96.0,1000.0,98.4,0.3,0.8,133.8,0.05,24.0,23.3,"13:10:40",1
"23/07/01","13:30",0.0,24.7,95.9,999.6,96.3,0.3,1.0,93.3,0.05,24.0,23.0,"13:27:12",1
"23/07/01","13:40",0.0,24.6,96.0,999.8,64.9,0.3,1.1,69.3,0.04,24.0,23.4,"13:39:28",1
"23/07/01","13:50",0.2,24.7,95.9,999.8,14.3,0.5,1.3,345.6,0.05,24.0,23.3,"13:49:44",1
"23/07/01","14:00",0.0,24.6,96.0,999.8,350.4,1.0,1.6,352.1,0.07,24.0,23.3,"13:50:24",1
"23/07/01","14:10",0.0,25.0,96.0,999.6,40.7,0.5,1.7,347.6,0.11,24.4,23.4,"14:04:08",1
"23/07/01","14:20",0.2,25.1,95.7,999.6,145.2,0.6,1.6,127.0,0.11,24.4,23.4,"14:19:28",1
"23/07/01","14:30",0.0,24.9,95.4,999.6,185.6,1.0,1.8,226.6,0.10,24.2,23.2,"14:23:12",1
"23/07/01","14:40",0.0,24.9,95.5,999.8,214.0,0.7,2.0,194.5,0.09,24.2,23.4,"14:30:08",1
"23/07/01","14:50",0.0,25.1,95.5,999.8,208.5,0.7,2.1,240.6,0.10,24.4,23.3,"14:45:36",1
"23/07/01","15:00",0.0,24.8,95.4,999.8,194.5,1.5,2.8,188.8,0.11,24.1,23.4,"14:56:40",1
"23/07/01","15:10",0.0,25.1,95.2,1000.0,199.9,1.5,3.5,203.1,0.16,24.3,23.2,"15:08:08",1
"23/07/01","15:20",0.0,25.3,95.0,1000.0,207.0,1.2,2.5,223.0,0.14,24.5,23.3,"15:10:16",1
"23/07/01","15:30",0.0,25.7,94.7,1000.0,196.4,0.8,1.9,203.1,0.24,24.8,23.3,"15:28:32",1
"23/07/01","15:40",0.0,25.8,94.4,999.6,266.7,1.3,2.9,240.5,0.32,24.9,23.3,"15:37:12",1
"23/07/01","15:50",0.0,25.8,93.3,999.3,256.0,1.3,4.0,234.6,0.28,24.7,23.4,"15:48:08",1
"23/07/01","16:00",0.0,25.9,92.4,999.3,252.8,1.5,2.8,237.3,0.20,24.6,23.3,"15:58:00",1
"23/07/01","16:10",0.0,25.9,91.7,999.3,208.5,1.0,2.2,199.9,0.08,24.5,23.4,"16:05:20",1
"23/07/01","16:20",0.0,25.3,91.3,999.6,195.0,1.8,4.0,200.2,0.04,23.8,23.3,"16:14:00",1
"23/07/01","16:30",0.0,25.1,91.1,999.6,195.0,2.0,3.7,198.3,0.03,23.6,23.3,"16:22:32",1
"23/07/01","16:40",0.0,25.0,91.1,999.3,192.7,2.0,3.5,198.2,0.02,23.5,23.5,"16:30:08",1
"23/07/01","16:50",0.0,24.9,91.3,999.8,194.1,1.6,3.7,206.5,0.02,23.4,23.2,"16:46:24",1
"23/07/01","17:00",0.0,24.6,91.5,999.8,195.8,1.6,3.9,197.2,0.02,23.2,23.5,"16:57:52",1
"23/07/01","17:10",0.0,24.7,91.8,999.6,182.4,1.0,2.5,193.8,0.02,23.3,23.5,"17:02:48",1
"23/07/01","17:20",0.2,24.7,91.9,999.8,178.9,0.7,1.7,173.7,0.02,23.3,23.2,"17:11:52",1
"23/07/01","17:30",0.0,24.7,91.9,999.8,163.0,0.3,1.4,161.4,0.01,23.3,23.3,"17:23:44",1
"23/07/01","17:40",0.0,24.7,92.0,999.8,101.7,0.2,0.9,100.7,0.01,23.4,23.5,"17:34:16",1
"23/07/01","17:50",0.0,24.6,92.1,999.8,105.3,0.3,1.0,97.9,0.01,23.3,23.5,"17:44:40",1
"23/07/01","18:00",0.0,24.6,92.2,1000.0,85.6,0.2,0.9,5.4,0.01,23.3,23.5,"17:58:40",1
"23/07/01","18:10",0.0,24.5,92.3,999.8,148.7,0.7,1.7,142.1,0.01,23.2,23.5,"18:07:44",1
"23/07/01","18:20",0.2,24.4,92.4,999.8,135.7,0.6,2.1,117.5,0.00,23.1,23.5,"18:12:40",1
"23/07/01","18:30",0.0,24.4,92.6,999.6,177.0,0.2,1.2,129.1,0.00,23.2,23.7,"18:20:16",1
"23/07/01","18:40",0.0,24.5,92.7,999.8,333.7,0.8,1.3,348.1,0.00,23.3,23.5,"18:30:02",1
"23/07/01","18:50",0.2,24.4,92.8,1000.0,345.5,0.7,1.4,354.7,0.00,23.2,23.4,"18:40:16",1
"23/07/01","19:00",0.0,24.3,93.0,1000.3,356.3,0.8,1.3,336.4,0.00,23.1,23.5,"18:52:16",1
"23/07/01","19:10",0.0,24.3,93.2,1000.3,348.4,0.5,1.1,6.6,0.00,23.2,23.6,"19:00:56",1
"23/07/01","19:20",0.2,24.2,93.4,1000.3,307.0,0.3,1.1,303.6,0.00,23.1,23.2,"19:19:20",1
"23/07/01","19:30",0.0,24.1,93.5,1000.3,335.4,0.6,1.2,346.8,0.00,23.0,23.5,"19:24:00",1
"23/07/01","19:40",0.0,24.1,93.6,1000.3,31.8,0.2,1.0,343.4,0.00,23.0,23.2,"19:32:24",1
"23/07/01","19:50",0.0,24.2,93.7,1000.8,341.9,0.7,1.0,358.9,0.00,23.2,23.3,"19:41:36",1
"23/07/01","20:00",0.0,24.1,93.9,1000.3,234.9,0.1,0.5,200.5,0.00,23.1,23.2,"19:58:24",1
"23/07/01","20:10",0.0,24.1,93.9,1000.5,343.9,0.6,1.4,0.2,0.00,23.1,23.3,"20:06:04",1
"23/07/01","20:20",0.0,24.0,94.1,1000.5,322.4,0.6,1.3,350.9,0.00,23.0,23.4,"20:13:52",1
"23/07/01","20:30",0.0,23.9,94.2,1000.5,193.7,0.1,0.4,163.1,0.00,22.9,23.3,"20:20:08",1
"23/07/01","20:40",0.0,23.9,94.4,1001.0,338.6,0.7,1.4,346.7,0.00,23.0,23.2,"20:33:04",1
"23/07/01","20:50",0.0,23.9,94.4,1000.8,329.4,0.6,1.6,340.1,0.00,23.0,23.2,"20:41:52",1
"23/07/01","21:00",0.0,23.8,94.6,1001.2,325.6,0.7,1.1,348.6,0.00,22.9,23.3,"20:54:00",1
"23/07/01","21:10",0.0,23.6,94.7,1000.5,307.6,0.7,1.7,337.3,0.00,22.7,23.3,"21:02:40",1
"23/07/01","21:20",0.0,23.6,94.9,1001.2,325.1,0.7,1.4,316.5,0.00,22.8,23.4,"21:17:28",1
"23/07/01","21:30",0.0,23.6,95.0,1001.0,329.1,0.6,1.1,334.2,0.00,22.8,23.3,"21:20:24",1
"23/07/01","21:40",0.0,23.5,95.0,1001.0,279.9,0.3,0.8,262.8,0.00,22.7,23.5,"21:35:36",1
"23/07/01","21:50",0.0,23.5,95.1,1001.2,285.4,0.6,1.4,320.3,0.00,22.7,23.4,"21:45:12",1
"23/07/01","22:00",0.0,23.5,95.2,1001.5,333.5,0.5,1.0,328.8,0.00,22.7,23.4,"21:52:48",1
"23/07/01","22:10",0.0,23.5,95.2,1001.2,355.0,0.3,1.0,6.4,0.00,22.7,23.3,"22:00:16",1
"23/07/01","22:20",0.0,23.5,95.3,1001.2,297.8,0.6,0.9,318.2,0.00,22.7,23.3,"22:17:36",1
"23/07/01","22:30",0.0,23.6,95.4,1001.7,260.7,0.7,1.1,242.3,0.00,22.9,23.3,"22:24:48",1
"23/07/01","22:40",0.0,23.5,95.4,1001.2,251.0,0.8,1.2,233.4,0.00,22.8,23.3,"22:35:20",1
"23/07/01","22:50",0.0,23.6,95.5,1001.2,351.4,0.6,1.2,335.8,0.00,22.9,23.2,"22:48:00",1
"23/07/01","23:00",0.0,23.5,95.6,1001.2,340.5,0.6,1.3,336.6,0.00,22.8,23.4,"22:51:36",1
"23/07/01","23:10",0.0,23.5,95.6,1001.2,334.8,0.5,1.1,336.7,0.00,22.8,23.2,"23:06:00",1
"23/07/01","23:20",0.0,23.6,95.7,1001.5,330.1,0.8,1.1,334.3,0.00,22.9,23.1,"23:12:00",1
"23/07/01","23:30",0.0,23.4,95.7,1001.2,299.5,0.3,1.1,325.1,0.00,22.7,23.2,"23:20:32",1
"23/07/01","23:40",0.0,23.4,95.7,1001.2,305.0,0.5,0.9,327.8,0.00,22.7,23.1,"23:33:52",1
"23/07/01","23:50",0.0,23.4,95.7,1001.5,310.0,0.3,0.9,313.4,0.00,22.7,23.3,"23:47:04",1
"23/07/01","24:00",0.0,23.4,95.8,1001.5,284.9,0.2,0.5,317.5,0.00,22.7,23.2,"23:50:40",1
